Location: Chuathbaluk
(61.5726°N, 159.2454°W)
Time: 05:24:42
(UTC+00:00)

FO-99 - Pass Details

Date: 20 January 2021
Orbit: 473 x 506 km, 97.2° (Epoch: 08 March)

Event Time Altitude Azimuth Distance (km) Brightness Sun altitude
Exits shadow 05:11:08 11° 4° (N) 1,620 ? -20.3°
Drops below altitude 10° 05:11:24 10° 1° (N) 1,711 ? -20.3°
Sets 05:13:42 0° 348° (NNW) 2,592 ? -20.6°
